Tracking 25710 objects as of 6-Jul-2022
HD Live streaming from Space Station
objects crossing your sky now

DELTA 1 DEB

Track DELTA 1 DEB now!
10-day predictions


NORAD ID: 7933
Int'l Code: 1972-058CB
Perigee: 617.8 km
Apogee: 1,059.0 km
Inclination: 99.0 °
Period: 101.5 minutes
Semi major axis: 7209 km
RCS: 0.0774 m2 (small)
Launch date: July 23, 1972
Source: United States (US)
Launch site: AIR FORCE WESTERN TEST RANGE (AFWTR)

Note: This is SATELLITE DEBRIS
aabbcc
Your satellite tracking list
Your tracking list is empty




NASA's NSSDC Master Catalog

Two Line Element Set (TLE):
1 07933U 72058CB  22187.55383383  .00000623  00000-0  20760-3 0  9991
2 07933  98.9567 167.8778 0306011 336.4757  22.2666 14.18261055391222
Source of the keplerian elements: AFSPC